| time (UTC) | temp F | wind direction | speed MPH | gust MPH | rain 1hr in | rain 24hr in | rain mn in | humidity % | barometer mb |
| 20260905195853 | 94 | 316 | 6.0 | 11.0 | 0.00 | 0.00 | 0.00 | 100 | 1011.2 |
| 20260905195800 | 93 | 355 | 4.0 | 13.0 | 0.00 | 0.00 | 0.00 | 100 | 1011.1 |
| 20260905195353 | 93 | 355 | 4.0 | 13.0 | 0.00 | 0.00 | 0.00 | 100 | 1011.1 |
| 20260905194853 | 93 | 340 | 8.0 | 11.0 | 0.00 | 0.00 | 0.00 | 100 | 1011.2 |
| 20260905194353 | 94 | 322 | 6.0 | 12.0 | 0.00 | 0.00 | 0.00 | 100 | 1010.9 |
| 20260905193853 | 94 | 7 | 10.0 | 11.0 | 0.00 | 0.00 | 0.00 | 100 | 1011.4 |
| 20260905193353 | 94 | 285 | 4.0 | 11.0 | 0.00 | 0.00 | 0.00 | 100 | 1011.3 |
| 20260905193155 | 95 | 358 | 3.0 | 9.0 | 0.00 | 0.00 | 0.00 | 100 | 1011.4 |
| 20260905192853 | 95 | 358 | 3.0 | 9.0 | 0.00 | 0.00 | 0.00 | 100 | 1011.4 |
| 20260905192353 | 94 | 350 | 8.0 | 10.0 | 0.00 | 0.00 | 0.00 | 100 | 1011.5 |
| 20260905191853 | 95 | 345 | 3.0 | 8.0 | 0.00 | 0.00 | 0.00 | 100 | 1011.2 |
| 20260905191717 | 94 | 354 | 3.0 | 8.0 | 0.00 | 0.00 | 0.00 | 100 | 1011.4 |
| 20260905191412 | 94 | 351 | 6.0 | 8.0 | 0.00 | 0.00 | 0.00 | 100 | 1011.3 |
| 20260905191353 | 94 | 354 | 3.0 | 8.0 | 0.00 | 0.00 | 0.00 | 100 | 1011.4 |
| 20260905190853 | 94 | 351 | 6.0 | 8.0 | 0.00 | 0.00 | 0.00 | 100 | 1011.3 |
| 20260905190353 | 94 | 334 | 7.0 | 10.0 | 0.00 | 0.00 | 0.00 | 100 | 1011.2 |
| 20260905190207 | 94 | 281 | 4.0 | 10.0 | 0.00 | 0.00 | 0.00 | 100 | 1011.3 |
| 20260905185853 | 94 | 281 | 4.0 | 10.0 | 0.00 | 0.00 | 0.00 | 100 | 1011.3 |
| 20260905185803 | 94 | 244 | 2.0 | 12.0 | 0.00 | 0.00 | 0.00 | 100 | 1011.3 |
| 20260905185435 | 94 | 265 | 4.0 | 10.0 | 0.00 | 0.00 | 0.00 | 100 | 1011.5 |
| 20260905185353 | 94 | 244 | 2.0 | 12.0 | 0.00 | 0.00 | 0.00 | 100 | 1011.3 |
| 20260905184853 | 94 | 265 | 4.0 | 10.0 | 0.00 | 0.00 | 0.00 | 100 | 1011.5 |
| 20260905184718 | 94 | 284 | 3.0 | 10.0 | 0.00 | 0.00 | 0.00 | 100 | 1011.5 |
| 20260905184353 | 94 | 284 | 3.0 | 10.0 | 0.00 | 0.00 | 0.00 | 100 | 1011.5 |
| 20260905183853 | 95 | 329 | 5.0 | 11.0 | 0.00 | 0.00 | 0.00 | 100 | 1011.6 |
| 20260905183713 | 95 | 305 | 3.0 | 7.0 | 0.00 | 0.00 | 0.00 | 100 | 1011.6 |
| 20260905183353 | 95 | 305 | 3.0 | 7.0 | 0.00 | 0.00 | 0.00 | 100 | 1011.6 |
| 20260905183339 | 95 | 0 | 1.0 | 6.0 | 0.00 | 0.00 | 0.00 | 100 | 1011.6 |
| 20260905182853 | 95 | 0 | 1.0 | 6.0 | 0.00 | 0.00 | 0.00 | 100 | 1011.6 |
| 20260905182759 | 95 | 202 | 2.0 | 9.0 | 0.00 | 0.00 | 0.00 | 100 | 1011.7 |
| 20260905182353 | 95 | 202 | 2.0 | 9.0 | 0.00 | 0.00 | 0.00 | 100 | 1011.7 |
| 20260905182243 | 94 | 277 | 3.0 | 10.0 | 0.00 | 0.00 | 0.00 | 100 | 1011.8 |
| 20260905181853 | 94 | 277 | 3.0 | 10.0 | 0.00 | 0.00 | 0.00 | 100 | 1011.8 |
| 20260905181715 | 95 | 248 | 0.0 | 6.0 | 0.00 | 0.00 | 0.00 | 100 | 1011.8 |
| 20260905181353 | 95 | 248 | 0.0 | 6.0 | 0.00 | 0.00 | 0.00 | 100 | 1011.8 |
| 20260905181159 | 94 | 213 | 1.0 | 9.0 | 0.00 | 0.00 | 0.00 | 100 | 1011.8 |
| 20260905180853 | 94 | 213 | 1.0 | 9.0 | 0.00 | 0.00 | 0.00 | 100 | 1011.8 |
| 20260905180719 | 94 | 331 | 4.0 | 8.0 | 0.00 | 0.00 | 0.00 | 100 | 1011.9 |
| 20260905180353 | 94 | 331 | 4.0 | 8.0 | 0.00 | 0.00 | 0.00 | 100 | 1011.9 |
| 20260905180125 | 94 | 299 | 7.0 | 12.0 | 0.00 | 0.00 | 0.00 | 100 | 1011.9 |
| 20260905175853 | 94 | 299 | 7.0 | 12.0 | 0.00 | 0.00 | 0.00 | 100 | 1011.9 |
| 20260905175353 | 94 | 355 | 6.0 | 9.0 | 0.00 | 0.00 | 0.00 | 100 | 1012.0 |
| 20260905174853 | 94 | 1 | 3.0 | 8.0 | 0.00 | 0.00 | 0.00 | 100 | 1011.9 |
| 20260905174717 | 95 | 331 | 4.0 | 9.0 | 0.00 | 0.00 | 0.00 | 100 | 1012.1 |
| 20260905174353 | 95 | 331 | 4.0 | 9.0 | 0.00 | 0.00 | 0.00 | 100 | 1012.1 |
| 20260905173853 | 96 | 309 | 3.0 | 5.0 | 0.00 | 0.00 | 0.00 | 100 | 1012.2 |
| 20260905173354 | 95 | 298 | 3.0 | 4.0 | 0.00 | 0.00 | 0.00 | 100 | 1012.2 |
| 20260905172853 | 94 | 43 | 3.0 | 11.0 | 0.00 | 0.00 | 0.00 | 100 | 1012.3 |
| 20260905172353 | 94 | 341 | 8.0 | 11.0 | 0.00 | 0.00 | 0.00 | 100 | 1012.3 |
| 20260905171853 | 95 | 30 | 4.0 | 9.0 | 0.00 | 0.00 | 0.00 | 100 | 1012.4 |
| 20260905171353 | 94 | 312 | 4.0 | 7.0 | 0.00 | 0.00 | 0.00 | 100 | 1012.4 |
| 20260905170853 | 94 | 12 | 2.0 | 12.0 | 0.00 | 0.00 | 0.00 | 100 | 1012.5 |
| 20260905170353 | 95 | 7 | 3.0 | 8.0 | 0.00 | 0.00 | 0.00 | 100 | 1012.5 |
| 20260905165853 | 94 | 254 | 0.0 | 8.0 | 0.00 | 0.00 | 0.00 | 100 | 1012.6 |
| 20260905165712 | 95 | 302 | 3.0 | 7.0 | 0.00 | 0.00 | 0.00 | 100 | 1012.6 |
| 20260905165353 | 95 | 302 | 3.0 | 7.0 | 0.00 | 0.00 | 0.00 | 100 | 1012.6 |
| 20260905164853 | 95 | 5 | 2.0 | 7.0 | 0.00 | 0.00 | 0.00 | 100 | 1012.7 |
| 20260905164353 | 94 | 293 | 3.0 | 4.0 | 0.00 | 0.00 | 0.00 | 100 | 1012.7 |
| 20260905163853 | 94 | 202 | 0.0 | 4.0 | 0.00 | 0.00 | 0.00 | 100 | 1012.8 |
| 20260905163353 | 94 | 295 | 2.0 | 11.0 | 0.00 | 0.00 | 0.00 | 100 | 1013.0 |
| 20260905162853 | 94 | 248 | 1.0 | 9.0 | 0.00 | 0.00 | 0.00 | 100 | 1013.0 |
| 20260905162742 | 94 | 350 | 6.0 | 6.0 | 0.00 | 0.00 | 0.00 | 100 | 1013.0 |
| 20260905162353 | 94 | 350 | 6.0 | 6.0 | 0.00 | 0.00 | 0.00 | 100 | 1013.0 |
| 20260905162248 | 94 | 12 | 2.0 | 6.0 | 0.00 | 0.00 | 0.00 | 100 | 1013.1 |
| 20260905161853 | 94 | 12 | 2.0 | 6.0 | 0.00 | 0.00 | 0.00 | 100 | 1013.1 |
| 20260905161353 | 95 | 303 | 1.0 | 5.0 | 0.00 | 0.00 | 0.00 | 100 | 1013.0 |
| 20260905161229 | 94 | 271 | 0.0 | 8.0 | 0.00 | 0.00 | 0.00 | 100 | 1013.1 |
| 20260905160853 | 94 | 271 | 0.0 | 8.0 | 0.00 | 0.00 | 0.00 | 100 | 1013.1 |
| 20260905160747 | 93 | 358 | 7.0 | 9.0 | 0.00 | 0.00 | 0.00 | 100 | 1013.0 |
| 20260905160353 | 93 | 358 | 7.0 | 9.0 | 0.00 | 0.00 | 0.00 | 100 | 1013.0 |
| 20260905155853 | 94 | 14 | 6.0 | 9.0 | 0.00 | 0.00 | 0.00 | 100 | 1013.2 |
| 20260905155632 | 95 | 320 | 7.0 | 7.0 | 0.00 | 0.00 | 0.00 | 100 | 1013.1 |
| 20260905155353 | 95 | 320 | 7.0 | 7.0 | 0.00 | 0.00 | 0.00 | 100 | 1013.1 |
| 20260905155157 | 95 | 302 | 0.0 | 5.0 | 0.00 | 0.00 | 0.00 | 100 | 1013.1 |
| 20260905154853 | 95 | 302 | 0.0 | 5.0 | 0.00 | 0.00 | 0.00 | 100 | 1013.1 |
| 20260905154353 | 94 | 172 | 0.0 | 4.0 | 0.00 | 0.00 | 0.00 | 100 | 1013.2 |
| 20260905153853 | 94 | 75 | 1.0 | 7.0 | 0.00 | 0.00 | 0.00 | 100 | 1013.2 |
| 20260905153353 | 94 | 23 | 5.0 | 6.0 | 0.00 | 0.00 | 0.00 | 100 | 1013.0 |
| 20260905152944 | 94 | 351 | 0.0 | 8.0 | 0.00 | 0.00 | 0.00 | 100 | 1013.0 |
| 20260905152853 | 94 | 351 | 0.0 | 8.0 | 0.00 | 0.00 | 0.00 | 100 | 1013.0 |
| 20260905152353 | 94 | 279 | 5.0 | 5.0 | 0.00 | 0.00 | 0.00 | 100 | 1013.1 |
| 20260905151853 | 94 | 253 | 0.0 | 4.0 | 0.00 | 0.00 | 0.00 | 100 | 1013.1 |
| 20260905151353 | 94 | 298 | 3.0 | 4.0 | 0.00 | 0.00 | 0.00 | 100 | 1013.1 |
| 20260905151257 | 93 | 53 | 4.0 | 6.0 | 0.00 | 0.00 | 0.00 | 100 | 1013.1 |
| 20260905150853 | 93 | 53 | 4.0 | 6.0 | 0.00 | 0.00 | 0.00 | 100 | 1013.1 |
| 20260905150659 | 93 | 195 | 0.0 | 4.0 | 0.00 | 0.00 | 0.00 | 100 | 1013.1 |
| 20260905150353 | 93 | 195 | 0.0 | 4.0 | 0.00 | 0.00 | 0.00 | 100 | 1013.1 |
| 20260905145853 | 93 | 248 | 2.0 | 5.0 | 0.00 | 0.00 | 0.00 | 100 | 1013.0 |
| 20260905145650 | 93 | 312 | 3.0 | 3.0 | 0.00 | 0.00 | 0.00 | 100 | 1013.0 |
| 20260905145353 | 93 | 312 | 3.0 | 3.0 | 0.00 | 0.00 | 0.00 | 100 | 1013.0 |
| 20260905144853 | 92 | 343 | 1.0 | 3.0 | 0.00 | 0.00 | 0.00 | 100 | 1012.9 |
| 20260905144353 | 92 | 291 | 0.0 | 1.0 | 0.00 | 0.00 | 0.00 | 100 | 1012.9 |
| 20260905143853 | 93 | 255 | 0.0 | 7.0 | 0.00 | 0.00 | 0.00 | 100 | 1012.8 |
| 20260905143353 | 93 | 347 | 3.0 | 6.0 | 0.00 | 0.00 | 0.00 | 100 | 1012.8 |
| 20260905143110 | 93 | 284 | 3.0 | 4.0 | 0.00 | 0.00 | 0.00 | 100 | 1012.8 |
| 20260905142853 | 93 | 284 | 3.0 | 4.0 | 0.00 | 0.00 | 0.00 | 100 | 1012.8 |
| 20260905142647 | 93 | 282 | 0.0 | 5.0 | 0.00 | 0.00 | 0.00 | 100 | 1012.7 |
| 20260905142353 | 93 | 282 | 0.0 | 5.0 | 0.00 | 0.00 | 0.00 | 100 | 1012.7 |
| 20260905141853 | 93 | 347 | 3.0 | 6.0 | 0.00 | 0.00 | 0.00 | 100 | 1012.7 |
| 20260905141353 | 93 | 188 | 0.0 | 4.0 | 0.00 | 0.00 | 0.00 | 100 | 1012.7 |
| 20260905140853 | 93 | 354 | 0.0 | 6.0 | 0.00 | 0.00 | 0.00 | 100 | 1012.7 |
| 20260905140353 | 93 | 115 | 2.0 | 7.0 | 0.00 | 0.00 | 0.00 | 100 | 1012.6 |
| 20260905135853 | 93 | 289 | 0.0 | 6.0 | 0.00 | 0.00 | 0.00 | 100 | 1012.6 |
| 20260905135542 | 93 | 215 | 1.0 | 5.0 | 0.00 | 0.00 | 0.00 | 100 | 1012.7 |
| 20260905135353 | 93 | 215 | 1.0 | 5.0 | 0.00 | 0.00 | 0.00 | 100 | 1012.7 |
| 20260905134853 | 92 | 275 | 4.0 | 4.0 | 0.00 | 0.00 | 0.00 | 100 | 1012.7 |
| 20260905134544 | 92 | 300 | 0.0 | 5.0 | 0.00 | 0.00 | 0.00 | 100 | 1012.7 |
| 20260905134353 | 92 | 300 | 0.0 | 5.0 | 0.00 | 0.00 | 0.00 | 100 | 1012.7 |
| 20260905134110 | 92 | 316 | 3.0 | 5.0 | 0.00 | 0.00 | 0.00 | 100 | 1012.7 |
| 20260905133853 | 92 | 316 | 3.0 | 5.0 | 0.00 | 0.00 | 0.00 | 100 | 1012.7 |
| 20260905133353 | 92 | 230 | 1.0 | 7.0 | 0.00 | 0.00 | 0.00 | 100 | 1012.8 |
| 20260905133245 | 92 | 227 | 0.0 | 4.0 | 0.00 | 0.00 | 0.00 | 100 | 1012.8 |
| 20260905132853 | 92 | 227 | 0.0 | 4.0 | 0.00 | 0.00 | 0.00 | 100 | 1012.8 |
| 20260905132353 | 91 | 206 | 1.0 | 4.0 | 0.00 | 0.00 | 0.00 | 100 | 1012.8 |
| 20260905131853 | 91 | 132 | 0.0 | 5.0 | 0.00 | 0.00 | 0.00 | 100 | 1012.9 |
| 20260905131353 | 90 | 109 | 1.0 | 6.0 | 0.00 | 0.00 | 0.00 | 100 | 1012.9 |
| 20260905130853 | 90 | 275 | 0.0 | 4.0 | 0.00 | 0.00 | 0.00 | 100 | 1012.8 |
| 20260905130714 | 88 | 184 | 0.0 | 0.0 | 0.00 | 0.00 | 0.00 | 100 | 1012.8 |
| 20260905130711 | 93 | 270 | 0.0 | 5.0 | 0.00 | 0.00 | 0.00 | 100 | 1010.6 |
| 20260905130620 | 90 | 226 | 4.0 | 5.0 | 0.00 | 0.00 | 0.00 | 100 | 1012.8 |
| 20260905130353 | 90 | 226 | 4.0 | 5.0 | 0.00 | 0.00 | 0.00 | 100 | 1012.8 |
| 20260905130112 | 90 | 213 | 0.0 | 4.0 | 0.00 | 0.00 | 0.00 | 100 | 1012.7 |
| 20260905125853 | 90 | 213 | 0.0 | 4.0 | 0.00 | 0.00 | 0.00 | 100 | 1012.7 |
| 20260905125353 | 89 | 246 | 0.0 | 4.0 | 0.00 | 0.00 | 0.00 | 100 | 1012.7 |
| 20260905124853 | 89 | 234 | 0.0 | 0.0 | 0.00 | 0.00 | 0.00 | 100 | 1012.6 |
| 20260905124354 | 89 | 234 | 0.0 | 4.0 | 0.00 | 0.00 | 0.00 | 100 | 1012.7 |
| 20260905124021 | 88 | 184 | 0.0 | 0.0 | 0.00 | 0.00 | 0.00 | 100 | 1012.8 |
| 20260905123854 | 88 | 184 | 0.0 | 0.0 | 0.00 | 0.00 | 0.00 | 100 | 1012.8 |
| 20260905123354 | 88 | 184 | 0.0 | 4.0 | 0.00 | 0.00 | 0.00 | 100 | 1012.7 |
| 20260905122853 | 87 | 216 | 2.0 | 5.0 | 0.00 | 0.00 | 0.00 | 100 | 1012.1 |
| 20260905122354 | 87 | 232 | 3.0 | 4.0 | 0.00 | 0.00 | 0.00 | 100 | 1012.6 |
| 20260905121854 | 87 | 233 | 1.0 | 4.0 | 0.00 | 0.00 | 0.00 | 100 | 1012.7 |
| 20260905121539 | 87 | 225 | 0.0 | 4.0 | 0.00 | 0.00 | 0.00 | 100 | 1012.8 |
| 20260905121354 | 87 | 225 | 0.0 | 4.0 | 0.00 | 0.00 | 0.00 | 100 | 1012.8 |
| 20260905120854 | 87 | 213 | 0.0 | 1.0 | 0.00 | 0.00 | 0.00 | 100 | 1012.6 |
| 20260905120552 | 87 | 201 | 0.0 | 3.0 | 0.00 | 0.00 | 0.00 | 100 | 1012.5 |
| 20260905120354 | 87 | 201 | 0.0 | 3.0 | 0.00 | 0.00 | 0.00 | 100 | 1012.5 |
| 20260905115854 | 86 | 230 | 0.0 | 1.0 | 0.00 | 0.00 | 0.00 | 100 | 1012.5 |
| 20260905115354 | 86 | 143 | 0.0 | 0.0 | 0.00 | 0.00 | 0.00 | 100 | 1012.5 |
| 20260905114854 | 86 | 143 | 0.0 | 0.0 | 0.00 | 0.00 | 0.00 | 100 | 1012.5 |
| 20260905114620 | 86 | 143 | 0.0 | 0.0 | 0.00 | 0.00 | 0.00 | 100 | 1012.6 |
| 20260905114354 | 86 | 143 | 0.0 | 0.0 | 0.00 | 0.00 | 0.00 | 100 | 1012.6 |
| 20260905114113 | 86 | 143 | 0.0 | 0.0 | 0.00 | 0.00 | 0.00 | 100 | 1012.5 |
| 20260905113854 | 86 | 143 | 0.0 | 0.0 | 0.00 | 0.00 | 0.00 | 100 | 1012.5 |
| 20260905113534 | 86 | 143 | 0.0 | 0.0 | 0.00 | 0.00 | 0.00 | 100 | 1012.4 |
| 20260905113354 | 86 | 143 | 0.0 | 0.0 | 0.00 | 0.00 | 0.00 | 100 | 1012.4 |
| 20260905112854 | 86 | 143 | 0.0 | 0.0 | 0.00 | 0.00 | 0.00 | 100 | 1012.4 |
| 20260905112354 | 86 | 143 | 0.0 | 0.0 | 0.00 | 0.00 | 0.00 | 100 | 1012.4 |
| 20260905111854 | 86 | 143 | 0.0 | 0.0 | 0.00 | 0.00 | 0.00 | 100 | 1012.5 |
| 20260905111354 | 86 | 143 | 0.0 | 0.0 | 0.00 | 0.00 | 0.00 | 100 | 1012.5 |
| 20260905111114 | 86 | 143 | 0.0 | 0.0 | 0.00 | 0.00 | 0.00 | 100 | 1012.4 |
| 20260905110854 | 86 | 143 | 0.0 | 0.0 | 0.00 | 0.00 | 0.00 | 100 | 1012.4 |
| 20260905110354 | 86 | 143 | 0.0 | 0.0 | 0.00 | 0.00 | 0.00 | 100 | 1012.4 |
| 20260905105854 | 86 | 143 | 0.0 | 0.0 | 0.00 | 0.00 | 0.00 | 100 | 1012.3 |
| 20260905105354 | 86 | 143 | 0.0 | 0.0 | 0.00 | 0.00 | 0.00 | 100 | 1012.2 |
| 20260905105141 | 86 | 143 | 0.0 | 0.0 | 0.00 | 0.00 | 0.00 | 100 | 1012.2 |
| 20260905104854 | 86 | 143 | 0.0 | 0.0 | 0.00 | 0.00 | 0.00 | 100 | 1012.2 |
| 20260905104621 | 86 | 143 | 0.0 | 0.0 | 0.00 | 0.00 | 0.00 | 100 | 1012.3 |
| 20260905104354 | 86 | 143 | 0.0 | 0.0 | 0.00 | 0.00 | 0.00 | 100 | 1012.3 |
| 20260905103854 | 86 | 143 | 0.0 | 0.0 | 0.00 | 0.00 | 0.00 | 100 | 1012.2 |
| 20260905103354 | 86 | 143 | 0.0 | 0.0 | 0.00 | 0.00 | 0.00 | 100 | 1012.2 |
| 20260905102854 | 86 | 143 | 0.0 | 0.0 | 0.00 | 0.00 | 0.00 | 100 | 1012.0 |
| 20260905102611 | 86 | 143 | 0.0 | 0.0 | 0.00 | 0.00 | 0.00 | 100 | 1012.1 |
| 20260905102354 | 86 | 143 | 0.0 | 0.0 | 0.00 | 0.00 | 0.00 | 100 | 1012.1 |
| 20260905101854 | 86 | 143 | 0.0 | 0.0 | 0.00 | 0.00 | 0.00 | 100 | 1012.1 |
| 20260905101606 | 86 | 143 | 0.0 | 0.0 | 0.00 | 0.00 | 0.00 | 100 | 1012.0 |
| 20260905101354 | 86 | 143 | 0.0 | 0.0 | 0.00 | 0.00 | 0.00 | 100 | 1012.0 |
| 20260905100854 | 86 | 143 | 0.0 | 0.0 | 0.00 | 0.00 | 0.00 | 100 | 1012.0 |
| 20260905100647 | 86 | 143 | 0.0 | 0.0 | 0.00 | 0.00 | 0.00 | 100 | 1011.9 |
| 20260905100354 | 86 | 143 | 0.0 | 0.0 | 0.00 | 0.00 | 0.00 | 100 | 1011.9 |
| 20260905095854 | 86 | 143 | 0.0 | 0.0 | 0.00 | 0.00 | 0.00 | 100 | 1011.9 |
| 20260905095354 | 86 | 143 | 0.0 | 0.0 | 0.00 | 0.00 | 0.00 | 100 | 1011.9 |
| 20260905094854 | 86 | 143 | 0.0 | 0.0 | 0.00 | 0.00 | 0.00 | 100 | 1011.8 |
| 20260905094627 | 86 | 143 | 0.0 | 0.0 | 0.00 | 0.00 | 0.00 | 100 | 1011.7 |
| 20260905094354 | 86 | 143 | 0.0 | 0.0 | 0.00 | 0.00 | 0.00 | 100 | 1011.7 |
| 20260905093854 | 86 | 143 | 0.0 | 0.0 | 0.00 | 0.00 | 0.00 | 100 | 1011.7 |
| 20260905093629 | 86 | 143 | 0.0 | 0.0 | 0.00 | 0.00 | 0.00 | 100 | 1011.8 |
| 20260905093354 | 86 | 143 | 0.0 | 0.0 | 0.00 | 0.00 | 0.00 | 100 | 1011.8 |
| 20260905093050 | 86 | 143 | 0.0 | 0.0 | 0.00 | 0.00 | 0.00 | 100 | 1011.7 |
| 20260905092854 | 86 | 143 | 0.0 | 0.0 | 0.00 | 0.00 | 0.00 | 100 | 1011.7 |
| 20260905092354 | 86 | 143 | 0.0 | 0.0 | 0.00 | 0.00 | 0.00 | 100 | 1011.8 |
| 20260905091854 | 86 | 143 | 0.0 | 0.0 | 0.00 | 0.00 | 0.00 | 100 | 1011.8 |
| 20260905091544 | 85 | 143 | 0.0 | 0.0 | 0.00 | 0.00 | 0.00 | 100 | 1011.8 |
| 20260905091354 | 85 | 143 | 0.0 | 0.0 | 0.00 | 0.00 | 0.00 | 100 | 1011.8 |
| 20260905091151 | 86 | 143 | 0.0 | 0.0 | 0.00 | 0.00 | 0.00 | 100 | 1011.7 |
| 20260905090854 | 86 | 143 | 0.0 | 0.0 | 0.00 | 0.00 | 0.00 | 100 | 1011.7 |
| 20260905090622 | 86 | 143 | 0.0 | 0.0 | 0.00 | 0.00 | 0.00 | 100 | 1011.7 |
| 20260905090354 | 86 | 143 | 0.0 | 0.0 | 0.00 | 0.00 | 0.00 | 100 | 1011.7 |
| 20260905090027 | 86 | 143 | 0.0 | 0.0 | 0.00 | 0.00 | 0.00 | 100 | 1011.6 |
| 20260905085854 | 86 | 143 | 0.0 | 0.0 | 0.00 | 0.00 | 0.00 | 100 | 1011.6 |
| 20260905085549 | 86 | 143 | 0.0 | 0.0 | 0.00 | 0.00 | 0.00 | 100 | 1011.6 |
| 20260905085354 | 86 | 143 | 0.0 | 0.0 | 0.00 | 0.00 | 0.00 | 100 | 1011.6 |
| 20260905084854 | 86 | 143 | 0.0 | 0.0 | 0.00 | 0.00 | 0.00 | 100 | 1011.5 |
| 20260905084354 | 86 | 143 | 0.0 | 0.0 | 0.00 | 0.00 | 0.00 | 100 | 1011.6 |
| 20260905083854 | 86 | 143 | 0.0 | 0.0 | 0.00 | 0.00 | 0.00 | 100 | 1011.6 |
| 20260905083354 | 86 | 143 | 0.0 | 0.0 | 0.00 | 0.00 | 0.00 | 100 | 1011.6 |
| 20260905083050 | 86 | 143 | 0.0 | 0.0 | 0.00 | 0.00 | 0.00 | 100 | 1011.7 |
| 20260905082854 | 86 | 143 | 0.0 | 0.0 | 0.00 | 0.00 | 0.00 | 100 | 1011.7 |
| 20260905082711 | 85 | 143 | 0.0 | 0.0 | 0.00 | 0.00 | 0.00 | 100 | 1011.7 |
| 20260905082354 | 85 | 143 | 0.0 | 0.0 | 0.00 | 0.00 | 0.00 | 100 | 1011.7 |
| 20260905082032 | 86 | 143 | 0.0 | 0.0 | 0.00 | 0.00 | 0.00 | 100 | 1011.7 |
| 20260905081854 | 86 | 143 | 0.0 | 0.0 | 0.00 | 0.00 | 0.00 | 100 | 1011.7 |
| 20260905081354 | 86 | 143 | 0.0 | 0.0 | 0.00 | 0.00 | 0.00 | 100 | 1011.6 |
| 20260905080854 | 86 | 143 | 0.0 | 0.0 | 0.00 | 0.00 | 0.00 | 100 | 1011.7 |
| 20260905080528 | 86 | 143 | 0.0 | 0.0 | 0.00 | 0.00 | 0.00 | 100 | 1011.7 |
| 20260905080354 | 86 | 143 | 0.0 | 0.0 | 0.00 | 0.00 | 0.00 | 100 | 1011.7 |
| 20260905075854 | 86 | 143 | 0.0 | 0.0 | 0.00 | 0.00 | 0.00 | 100 | 1011.7 |
| 20260905075354 | 86 | 143 | 0.0 | 0.0 | 0.00 | 0.00 | 0.00 | 100 | 1011.7 |
| 20260905074854 | 86 | 143 | 0.0 | 0.0 | 0.00 | 0.00 | 0.00 | 100 | 1011.7 |
| 20260905074610 | 86 | 143 | 0.0 | 0.0 | 0.00 | 0.00 | 0.00 | 100 | 1011.7 |
| 20260905074354 | 86 | 143 | 0.0 | 0.0 | 0.00 | 0.00 | 0.00 | 100 | 1011.7 |
| 20260905073854 | 86 | 143 | 0.0 | 0.0 | 0.00 | 0.00 | 0.00 | 100 | 1011.7 |
| 20260905073354 | 86 | 143 | 0.0 | 0.0 | 0.00 | 0.00 | 0.00 | 100 | 1011.7 |
| 20260905072854 | 86 | 143 | 0.0 | 0.0 | 0.00 | 0.00 | 0.00 | 100 | 1011.7 |
| 20260905072651 | 86 | 143 | 0.0 | 0.0 | 0.00 | 0.00 | 0.00 | 100 | 1011.8 |
| 20260905072354 | 86 | 143 | 0.0 | 0.0 | 0.00 | 0.00 | 0.00 | 100 | 1011.8 |
| 20260905072050 | 86 | 143 | 0.0 | 0.0 | 0.00 | 0.00 | 0.00 | 100 | 1011.8 |
| 20260905071854 | 86 | 143 | 0.0 | 0.0 | 0.00 | 0.00 | 0.00 | 100 | 1011.8 |
| 20260905071354 | 86 | 143 | 0.0 | 0.0 | 0.00 | 0.00 | 0.00 | 100 | 1011.8 |
| 20260905070854 | 86 | 143 | 0.0 | 0.0 | 0.00 | 0.00 | 0.00 | 100 | 1011.8 |
| 20260905070619 | 86 | 143 | 0.0 | 0.0 | 0.00 | 0.00 | 0.00 | 100 | 1011.9 |
| 20260905070354 | 86 | 143 | 0.0 | 0.0 | 0.00 | 0.00 | 0.00 | 100 | 1011.9 |
| 20260905065854 | 86 | 143 | 0.0 | 0.0 | 0.00 | 0.00 | 0.00 | 100 | 1011.8 |
| 20260905065615 | 86 | 143 | 0.0 | 0.0 | 0.00 | 0.00 | 0.00 | 100 | 1011.8 |
| 20260905065354 | 86 | 143 | 0.0 | 0.0 | 0.00 | 0.00 | 0.00 | 100 | 1011.8 |
| 20260905065110 | 86 | 143 | 0.0 | 0.0 | 0.00 | 0.00 | 0.00 | 100 | 1011.8 |
| 20260905064854 | 86 | 143 | 0.0 | 0.0 | 0.00 | 0.00 | 0.00 | 100 | 1011.8 |
| 20260905064612 | 86 | 143 | 0.0 | 0.0 | 0.00 | 0.00 | 0.00 | 100 | 1011.8 |
| 20260905064354 | 86 | 143 | 0.0 | 0.0 | 0.00 | 0.00 | 0.00 | 100 | 1011.8 |
| 20260905063854 | 86 | 143 | 0.0 | 0.0 | 0.00 | 0.00 | 0.00 | 100 | 1011.9 |
| 20260905063627 | 86 | 143 | 0.0 | 0.0 | 0.00 | 0.00 | 0.00 | 100 | 1011.8 |
| 20260905063354 | 86 | 143 | 0.0 | 0.0 | 0.00 | 0.00 | 0.00 | 100 | 1011.8 |
| 20260905063102 | 86 | 143 | 0.0 | 0.0 | 0.00 | 0.00 | 0.00 | 100 | 1011.9 |
| 20260905062854 | 86 | 143 | 0.0 | 0.0 | 0.00 | 0.00 | 0.00 | 100 | 1011.9 |
| 20260905062620 | 86 | 143 | 0.0 | 0.0 | 0.00 | 0.00 | 0.00 | 100 | 1012.0 |
| 20260905062354 | 86 | 143 | 0.0 | 0.0 | 0.00 | 0.00 | 0.00 | 100 | 1012.0 |
| 20260905061854 | 86 | 143 | 0.0 | 0.0 | 0.00 | 0.00 | 0.00 | 100 | 1012.0 |
| 20260905061354 | 86 | 143 | 0.0 | 0.0 | 0.00 | 0.00 | 0.00 | 100 | 1012.0 |
| 20260905060854 | 86 | 143 | 0.0 | 0.0 | 0.00 | 0.00 | 0.00 | 100 | 1012.0 |
| 20260905060354 | 87 | 143 | 0.0 | 0.0 | 0.00 | 0.00 | 0.00 | 100 | 1012.1 |
| 20260905055854 | 86 | 143 | 0.0 | 0.0 | 0.00 | 0.00 | 0.00 | 100 | 1012.2 |
| 20260905055549 | 87 | 143 | 0.0 | 0.0 | 0.00 | 0.00 | 0.00 | 100 | 1012.2 |
| 20260905055354 | 87 | 143 | 0.0 | 0.0 | 0.00 | 0.00 | 0.00 | 100 | 1012.2 |
| 20260905054854 | 87 | 143 | 0.0 | 0.0 | 0.00 | 0.00 | 0.00 | 100 | 1012.2 |
| 20260905054626 | 87 | 143 | 0.0 | 0.0 | 0.00 | 0.00 | 0.00 | 100 | 1012.3 |
| 20260905054354 | 87 | 143 | 0.0 | 0.0 | 0.00 | 0.00 | 0.00 | 100 | 1012.3 |
| 20260905053854 | 87 | 143 | 0.0 | 2.0 | 0.00 | 0.00 | 0.00 | 100 | 1012.4 |
| 20260905053622 | 87 | 305 | 0.0 | 0.0 | 0.00 | 0.00 | 0.00 | 100 | 1012.4 |
| 20260905053354 | 87 | 305 | 0.0 | 0.0 | 0.00 | 0.00 | 0.00 | 100 | 1012.4 |
| 20260905053121 | 87 | 305 | 0.0 | 0.0 | 0.00 | 0.00 | 0.00 | 100 | 1012.4 |
| 20260905052854 | 87 | 305 | 0.0 | 0.0 | 0.00 | 0.00 | 0.00 | 100 | 1012.4 |
| 20260905052626 | 87 | 305 | 0.0 | 0.0 | 0.00 | 0.00 | 0.00 | 100 | 1012.4 |
| 20260905052354 | 87 | 305 | 0.0 | 0.0 | 0.00 | 0.00 | 0.00 | 100 | 1012.4 |
| 20260905052113 | 87 | 305 | 0.0 | 0.0 | 0.00 | 0.00 | 0.00 | 100 | 1012.4 |
| 20260905051854 | 87 | 305 | 0.0 | 0.0 | 0.00 | 0.00 | 0.00 | 100 | 1012.4 |
| 20260905051616 | 88 | 305 | 0.0 | 0.0 | 0.00 | 0.00 | 0.00 | 100 | 1012.4 |
| 20260905051354 | 88 | 305 | 0.0 | 0.0 | 0.00 | 0.00 | 0.00 | 100 | 1012.4 |
| 20260905051111 | 88 | 305 | 0.0 | 0.0 | 0.00 | 0.00 | 0.00 | 100 | 1012.6 |
| 20260905050854 | 88 | 305 | 0.0 | 0.0 | 0.00 | 0.00 | 0.00 | 100 | 1012.6 |
| 20260905050354 | 88 | 305 | 0.0 | 0.0 | 0.00 | 0.00 | 0.00 | 100 | 1012.7 |
| 20260905045854 | 88 | 305 | 0.0 | 0.0 | 0.00 | 0.00 | 0.00 | 100 | 1012.7 |
| 20260905045354 | 88 | 305 | 0.0 | 0.0 | 0.00 | 0.00 | 0.00 | 100 | 1012.8 |
| 20260905045128 | 88 | 305 | 0.0 | 0.0 | 0.00 | 0.00 | 0.00 | 100 | 1012.8 |
| 20260905044854 | 88 | 305 | 0.0 | 0.0 | 0.00 | 0.00 | 0.00 | 100 | 1012.8 |
| 20260905044643 | 88 | 305 | 0.0 | 0.0 | 0.00 | 0.00 | 0.00 | 100 | 1012.9 |
| 20260905044354 | 88 | 305 | 0.0 | 0.0 | 0.00 | 0.00 | 0.00 | 100 | 1012.9 |
| 20260905043854 | 88 | 305 | 0.0 | 0.0 | 0.00 | 0.00 | 0.00 | 100 | 1012.8 |
| 20260905043354 | 88 | 305 | 0.0 | 0.0 | 0.00 | 0.00 | 0.00 | 100 | 1012.8 |
| 20260905043017 | 88 | 305 | 0.0 | 0.0 | 0.00 | 0.00 | 0.00 | 100 | 1012.8 |
| 20260905042854 | 88 | 305 | 0.0 | 0.0 | 0.00 | 0.00 | 0.00 | 100 | 1012.8 |
| 20260905042642 | 88 | 305 | 0.0 | 0.0 | 0.00 | 0.00 | 0.00 | 100 | 1012.9 |
| 20260905042354 | 88 | 305 | 0.0 | 0.0 | 0.00 | 0.00 | 0.00 | 100 | 1012.9 |
| 20260905042112 | 88 | 305 | 0.0 | 0.0 | 0.00 | 0.00 | 0.00 | 100 | 1012.9 |
| 20260905041854 | 88 | 305 | 0.0 | 0.0 | 0.00 | 0.00 | 0.00 | 100 | 1012.9 |
| 20260905041652 | 89 | 305 | 0.0 | 0.0 | 0.00 | 0.00 | 0.00 | 100 | 1012.9 |
| 20260905041354 | 89 | 305 | 0.0 | 0.0 | 0.00 | 0.00 | 0.00 | 100 | 1012.9 |
| 20260905040854 | 89 | 305 | 0.0 | 0.0 | 0.00 | 0.00 | 0.00 | 100 | 1012.9 |
| 20260905040652 | 89 | 305 | 0.0 | 0.0 | 0.00 | 0.00 | 0.00 | 100 | 1012.9 |
| 20260905040354 | 89 | 305 | 0.0 | 0.0 | 0.00 | 0.00 | 0.00 | 100 | 1012.9 |
| 20260905035954 | 89 | 305 | 0.0 | 0.0 | 0.00 | 0.00 | 0.00 | 100 | 1013.1 |
| 20260905035855 | 89 | 305 | 0.0 | 0.0 | 0.00 | 0.00 | 0.00 | 100 | 1013.0 |
| 20260905035354 | 89 | 305 | 0.0 | 0.0 | 0.00 | 0.00 | 0.00 | 100 | 1013.1 |
| 20260905034854 | 89 | 305 | 0.0 | 0.0 | 0.00 | 0.00 | 0.00 | 100 | 1013.0 |
| 20260905034708 | 89 | 305 | 0.0 | 0.0 | 0.00 | 0.00 | 0.00 | 100 | 1012.9 |
| 20260905034354 | 89 | 305 | 0.0 | 0.0 | 0.00 | 0.00 | 0.00 | 100 | 1012.9 |
| 20260905033854 | 89 | 305 | 0.0 | 0.0 | 0.00 | 0.00 | 0.00 | 100 | 1012.9 |
| 20260905033354 | 89 | 305 | 0.0 | 0.0 | 0.00 | 0.00 | 0.00 | 100 | 1012.9 |
| 20260905033113 | 89 | 305 | 0.0 | 0.0 | 0.00 | 0.00 | 0.00 | 100 | 1012.9 |
| 20260905032854 | 89 | 305 | 0.0 | 0.0 | 0.00 | 0.00 | 0.00 | 100 | 1012.9 |
| 20260905032657 | 89 | 305 | 0.0 | 0.0 | 0.00 | 0.00 | 0.00 | 100 | 1012.9 |
| 20260905032354 | 89 | 305 | 0.0 | 0.0 | 0.00 | 0.00 | 0.00 | 100 | 1012.9 |
| 20260905031854 | 89 | 305 | 0.0 | 0.0 | 0.00 | 0.00 | 0.00 | 100 | 1013.0 |
| 20260905031354 | 89 | 305 | 0.0 | 0.0 | 0.00 | 0.00 | 0.00 | 100 | 1013.1 |
| 20260905031218 | 89 | 305 | 0.0 | 0.0 | 0.00 | 0.00 | 0.00 | 100 | 1013.2 |
| 20260905030854 | 89 | 305 | 0.0 | 0.0 | 0.00 | 0.00 | 0.00 | 100 | 1013.2 |
| 20260905030354 | 90 | 305 | 0.0 | 0.0 | 0.00 | 0.00 | 0.00 | 100 | 1013.2 |
| 20260905025854 | 90 | 305 | 0.0 | 0.0 | 0.00 | 0.00 | 0.00 | 100 | 1013.2 |
| 20260905025355 | 90 | 305 | 0.0 | 0.0 | 0.00 | 0.00 | 0.00 | 100 | 1013.1 |
| 20260905025142 | 90 | 305 | 0.0 | 0.0 | 0.00 | 0.00 | 0.00 | 100 | 1013.1 |
| 20260905024854 | 90 | 305 | 0.0 | 0.0 | 0.00 | 0.00 | 0.00 | 100 | 1013.1 |
| 20260905024642 | 90 | 305 | 0.0 | 0.0 | 0.00 | 0.00 | 0.00 | 100 | 1013.1 |
| 20260905024354 | 90 | 305 | 0.0 | 0.0 | 0.00 | 0.00 | 0.00 | 100 | 1013.1 |
| 20260905023854 | 90 | 305 | 0.0 | 0.0 | 0.00 | 0.00 | 0.00 | 100 | 1013.0 |
| 20260905023632 | 90 | 305 | 0.0 | 0.0 | 0.00 | 0.00 | 0.00 | 100 | 1012.9 |
| 20260905023354 | 90 | 305 | 0.0 | 0.0 | 0.00 | 0.00 | 0.00 | 100 | 1012.9 |
| 20260905022854 | 90 | 305 | 0.0 | 0.0 | 0.00 | 0.00 | 0.00 | 100 | 1013.0 |
| 20260905022713 | 90 | 305 | 0.0 | 0.0 | 0.00 | 0.00 | 0.00 | 100 | 1013.0 |
| 20260905022354 | 90 | 305 | 0.0 | 0.0 | 0.00 | 0.00 | 0.00 | 100 | 1013.0 |
| 20260905021854 | 90 | 305 | 0.0 | 0.0 | 0.00 | 0.00 | 0.00 | 100 | 1013.0 |
| 20260905021354 | 90 | 305 | 0.0 | 0.0 | 0.00 | 0.00 | 0.00 | 100 | 1012.9 |
| 20260905021202 | 90 | 305 | 0.0 | 0.0 | 0.00 | 0.00 | 0.00 | 100 | 1013.0 |
| 20260905020854 | 90 | 305 | 0.0 | 0.0 | 0.00 | 0.00 | 0.00 | 100 | 1013.0 |
| 20260905020627 | 90 | 305 | 0.0 | 0.0 | 0.00 | 0.00 | 0.00 | 100 | 1013.0 |
| 20260905020354 | 90 | 305 | 0.0 | 0.0 | 0.00 | 0.00 | 0.00 | 100 | 1013.0 |
| 20260905020124 | 90 | 305 | 0.0 | 0.0 | 0.00 | 0.00 | 0.00 | 100 | 1013.1 |
| 20260905015854 | 90 | 305 | 0.0 | 0.0 | 0.00 | 0.00 | 0.00 | 100 | 1013.1 |
| 20260905015354 | 90 | 305 | 0.0 | 0.0 | 0.00 | 0.00 | 0.00 | 100 | 1011.5 |
| 20260905014855 | 90 | 305 | 0.0 | 0.0 | 0.00 | 0.00 | 0.00 | 100 | 1011.4 |
| 20260905014354 | 90 | 305 | 0.0 | 0.0 | 0.00 | 0.00 | 0.00 | 100 | 1011.4 |
| 20260905013854 | 90 | 305 | 0.0 | 0.0 | 0.00 | 0.00 | 0.00 | 100 | 1011.3 |
| 20260905013640 | 90 | 305 | 0.0 | 0.0 | 0.00 | 0.00 | 0.00 | 100 | 1011.3 |
| 20260905013354 | 90 | 305 | 0.0 | 0.0 | 0.00 | 0.00 | 0.00 | 100 | 1011.3 |
| 20260905012854 | 90 | 305 | 0.0 | 0.0 | 0.00 | 0.00 | 0.00 | 100 | 1011.1 |
| 20260905012713 | 90 | 305 | 0.0 | 0.0 | 0.00 | 0.00 | 0.00 | 100 | 1010.9 |
| 20260905012355 | 90 | 305 | 0.0 | 0.0 | 0.00 | 0.00 | 0.00 | 100 | 1010.9 |
| 20260905011855 | 90 | 305 | 0.0 | 0.0 | 0.00 | 0.00 | 0.00 | 100 | 1011.0 |
| 20260905011613 | 90 | 305 | 0.0 | 0.0 | 0.00 | 0.00 | 0.00 | 100 | 1011.0 |
| 20260905011355 | 90 | 305 | 0.0 | 0.0 | 0.00 | 0.00 | 0.00 | 100 | 1011.0 |
| 20260905010855 | 90 | 305 | 0.0 | 1.0 | 0.00 | 0.00 | 0.00 | 100 | 1011.0 |
| 20260905010355 | 90 | 49 | 0.0 | 0.0 | 0.00 | 0.00 | 0.00 | 100 | 1010.9 |
| 20260905005855 | 90 | 49 | 0.0 | 2.0 | 0.00 | 0.00 | 0.00 | 100 | 1010.9 |
| 20260905005529 | 90 | 316 | 0.0 | 0.0 | 0.00 | 0.00 | 0.00 | 100 | 1010.9 |
| 20260905005355 | 90 | 316 | 0.0 | 0.0 | 0.00 | 0.00 | 0.00 | 100 | 1010.9 |
| 20260905005143 | 90 | 316 | 0.0 | 0.0 | 0.00 | 0.00 | 0.00 | 100 | 1010.7 |
| 20260905004855 | 90 | 316 | 0.0 | 0.0 | 0.00 | 0.00 | 0.00 | 100 | 1010.7 |
| 20260905004355 | 90 | 316 | 0.0 | 0.0 | 0.00 | 0.00 | 0.00 | 100 | 1010.7 |
| 20260905004151 | 90 | 316 | 0.0 | 0.0 | 0.00 | 0.00 | 0.00 | 100 | 1010.7 |
| 20260905003855 | 90 | 316 | 0.0 | 0.0 | 0.00 | 0.00 | 0.00 | 100 | 1010.7 |
| 20260905003355 | 91 | 316 | 0.0 | 0.0 | 0.00 | 0.00 | 0.00 | 100 | 1010.7 |
| 20260905002855 | 91 | 316 | 0.0 | 0.0 | 0.00 | 0.00 | 0.00 | 100 | 1010.8 |
| 20260905002355 | 91 | 316 | 0.0 | 0.0 | 0.00 | 0.00 | 0.00 | 100 | 1010.9 |
| 20260905001855 | 91 | 316 | 0.0 | 0.0 | 0.00 | 0.00 | 0.00 | 100 | 1010.9 |
| 20260905001355 | 91 | 316 | 0.0 | 0.0 | 0.00 | 0.00 | 0.00 | 100 | 1010.9 |
| 20260905000855 | 91 | 316 | 0.0 | 0.0 | 0.00 | 0.00 | 0.00 | 100 | 1011.1 |
| 20260905000355 | 91 | 316 | 0.0 | 0.0 | 0.00 | 0.00 | 0.00 | 100 | 1010.9 |
| 20260904235855 | 92 | 316 | 0.0 | 0.0 | 0.00 | 0.00 | 0.00 | 100 | 1011.1 |
| 20260904235355 | 92 | 316 | 0.0 | 0.0 | 0.00 | 0.00 | 0.00 | 100 | 1011.2 |
| 20260904235121 | 92 | 316 | 0.0 | 0.0 | 0.00 | 0.00 | 0.00 | 100 | 1011.5 |
| 20260904234855 | 92 | 316 | 0.0 | 0.0 | 0.00 | 0.00 | 0.00 | 100 | 1011.5 |
| 20260904234355 | 92 | 316 | 0.0 | 0.0 | 0.00 | 0.00 | 0.00 | 100 | 1011.5 |
| 20260904234140 | 92 | 316 | 0.0 | 5.0 | 0.00 | 0.00 | 0.00 | 100 | 1011.4 |
| 20260904233855 | 92 | 316 | 0.0 | 5.0 | 0.00 | 0.00 | 0.00 | 100 | 1011.4 |
| 20260904233355 | 92 | 330 | 3.0 | 7.0 | 0.00 | 0.00 | 0.00 | 100 | 1011.2 |
| 20260904233108 | 92 | 33 | 0.0 | 4.0 | 0.00 | 0.00 | 0.00 | 100 | 1011.2 |
| 20260904232855 | 92 | 33 | 0.0 | 4.0 | 0.00 | 0.00 | 0.00 | 100 | 1011.2 |
| 20260904232355 | 92 | 309 | 0.0 | 4.0 | 0.00 | 0.00 | 0.00 | 100 | 1010.9 |
| 20260904231855 | 92 | 334 | 0.0 | 4.0 | 0.00 | 0.00 | 0.00 | 100 | 1010.7 |
| 20260904231355 | 92 | 284 | 0.0 | 2.0 | 0.00 | 0.00 | 0.00 | 100 | 1010.7 |
| 20260904231306 | 93 | 270 | 0.0 | 5.0 | 0.00 | 0.00 | 0.00 | 100 | 1010.6 |
| 20260904230855 | 93 | 270 | 0.0 | 5.0 | 0.00 | 0.00 | 0.00 | 100 | 1010.6 |
| 20260904230355 | 93 | 240 | 0.0 | 4.0 | 0.00 | 0.00 | 0.00 | 100 | 1010.6 |
| 20260904225855 | 93 | 351 | 0.0 | 5.0 | 0.00 | 0.00 | 0.00 | 100 | 1010.8 |
| 20260904225800 | 85 | 106 | 0.0 | 4.0 | 0.00 | 0.00 | 0.00 | 100 | 1011.4 |
| 20260904225355 | 93 | 350 | 4.0 | 5.0 | 0.00 | 0.00 | 0.00 | 100 | 1010.7 |
| 20260904224855 | 93 | 331 | 0.0 | 7.0 | 0.00 | 0.00 | 0.00 | 100 | 1010.6 |
| 20260904224355 | 93 | 5 | 5.0 | 6.0 | 0.00 | 0.00 | 0.00 | 100 | 1010.6 |
| 20260904223855 | 93 | 14 | 3.0 | 4.0 | 0.00 | 0.00 | 0.00 | 100 | 1010.4 |
| 20260904223355 | 93 | 355 | 0.0 | 4.0 | 0.00 | 0.00 | 0.00 | 100 | 1010.4 |
| 20260904223300 | 93 | 112 | 0.0 | 0.0 | 0.00 | 0.00 | 0.00 | 100 | 1010.3 |
| 20260904223220 | 93 | 112 | 0.0 | 0.0 | 0.00 | 0.00 | 0.00 | 100 | 1010.3 |
| 20260904222855 | 93 | 112 | 0.0 | 0.0 | 0.00 | 0.00 | 0.00 | 100 | 1010.3 |
| 20260904222355 | 93 | 112 | 0.0 | 3.0 | 0.00 | 0.00 | 0.00 | 100 | 1010.3 |
| 20260904222257 | 93 | 178 | 0.0 | 4.0 | 0.00 | 0.00 | 0.00 | 100 | 1010.3 |
| 20260904221855 | 93 | 178 | 0.0 | 4.0 | 0.00 | 0.00 | 0.00 | 100 | 1010.3 |
| 20260904221355 | 94 | 323 | 3.0 | 4.0 | 0.00 | 0.00 | 0.00 | 100 | 1010.2 |
| 20260904220855 | 94 | 305 | 0.0 | 6.0 | 0.00 | 0.00 | 0.00 | 100 | 1010.3 |
| 20260904220355 | 94 | 227 | 2.0 | 5.0 | 0.00 | 0.00 | 0.00 | 100 | 1010.2 |
| 20260904215855 | 94 | 320 | 0.0 | 4.0 | 0.00 | 0.00 | 0.00 | 100 | 1010.4 |
| 20260904215355 | 94 | 247 | 0.0 | 5.0 | 0.00 | 0.00 | 0.00 | 100 | 1010.3 |
| 20260904214855 | 94 | 358 | 3.0 | 5.0 | 0.00 | 0.00 | 0.00 | 100 | 1010.2 |
| 20260904214355 | 94 | 47 | 1.0 | 9.0 | 0.00 | 0.00 | 0.00 | 100 | 1010.3 |
| 20260904213855 | 95 | 22 | 2.0 | 5.0 | 0.00 | 0.00 | 0.00 | 100 | 1010.4 |
| 20260904213355 | 95 | 7 | 4.0 | 6.0 | 0.00 | 0.00 | 0.00 | 100 | 1010.7 |
| 20260904212855 | 95 | 351 | 0.0 | 7.0 | 0.00 | 0.00 | 0.00 | 100 | 1010.5 |
| 20260904212355 | 95 | 279 | 0.0 | 6.0 | 0.00 | 0.00 | 0.00 | 100 | 1011.8 |
| 20260904211855 | 94 | 251 | 2.0 | 5.0 | 0.00 | 0.00 | 0.00 | 100 | 1011.8 |
| 20260904211657 | 94 | 210 | 0.0 | 7.0 | 0.00 | 0.00 | 0.00 | 100 | 1011.7 |
| 20260904211355 | 94 | 210 | 0.0 | 7.0 | 0.00 | 0.00 | 0.00 | 100 | 1011.7 |
| 20260904211144 | 94 | 317 | 0.0 | 6.0 | 0.00 | 0.00 | 0.00 | 100 | 1011.7 |
| 20260904210855 | 94 | 317 | 0.0 | 6.0 | 0.00 | 0.00 | 0.00 | 100 | 1011.7 |
| 20260904210355 | 94 | 15 | 1.0 | 7.0 | 0.00 | 0.00 | 0.00 | 100 | 1011.4 |
| 20260904210117 | 94 | 285 | 1.0 | 8.0 | 0.00 | 0.00 | 0.00 | 100 | 1011.6 |
| 20260904205855 | 94 | 285 | 1.0 | 8.0 | 0.00 | 0.00 | 0.00 | 100 | 1011.6 |
| 20260904205355 | 94 | 172 | 0.0 | 7.0 | 0.00 | 0.00 | 0.00 | 100 | 1011.6 |
| 20260904204855 | 94 | 0 | 2.0 | 7.0 | 0.00 | 0.00 | 0.00 | 100 | 1011.7 |
| 20260904204355 | 94 | 306 | 0.0 | 2.0 | 0.00 | 0.00 | 0.00 | 100 | 1011.7 |
| 20260904203855 | 95 | 205 | 2.0 | 5.0 | 0.00 | 0.00 | 0.00 | 100 | 1011.6 |
| 20260904203355 | 95 | 239 | 2.0 | 7.0 | 0.00 | 0.00 | 0.00 | 100 | 1011.6 |
| 20260904202856 | 95 | 286 | 4.0 | 8.0 | 0.00 | 0.00 | 0.00 | 100 | 1011.5 |
| 20260904202355 | 96 | 125 | 0.0 | 8.0 | 0.00 | 0.00 | 0.00 | 100 | 1011.4 |
| 20260904202127 | 96 | 298 | 4.0 | 5.0 | 0.00 | 0.00 | 0.00 | 100 | 1011.5 |
| 20260904201855 | 96 | 298 | 4.0 | 5.0 | 0.00 | 0.00 | 0.00 | 100 | 1011.5 |
| 20260904201601 | 97 | 333 | 0.0 | 9.0 | 0.00 | 0.00 | 0.00 | 100 | 1011.2 |
| 20260904201355 | 97 | 333 | 0.0 | 9.0 | 0.00 | 0.00 | 0.00 | 100 | 1011.2 |
| 20260904200855 | 97 | 198 | 5.0 | 6.0 | 0.00 | 0.00 | 0.00 | 100 | 1010.6 |
| 20260904200355 | 97 | 253 | 1.0 | 4.0 | 0.00 | 0.00 | 0.00 | 100 | 1010.8 |
| 20260904200253 | 96 | 327 | 4.0 | 7.0 | 0.00 | 0.00 | 0.00 | 100 | 1012.0 |
| 20260904200215 | 96 | 327 | 4.0 | 7.0 | 0.00 | 0.00 | 0.00 | 100 | 1012.0 |